User: anonymous   Login
Location: Unspecified
(0.0000°N, 0.0000°E)
Time: 06:19:29
(UTC+00:00)
Language:

CUBESAT XI-V - Orbit

View from above orbital plane
View from above orbital plane
View from above satellite
View from above satellite

Ground track
Ground track

The orbit data is extracted from the following two-line orbital elements,

1 28895U 05043F   20336.34009396  .00000329  00000-0  71821-4 0  9999
2 28895  98.0330 108.2637 0017992 113.4718 246.8378 14.63833476805250
Epoch (UTC): 01 December 2020 08:09:44
Eccentricity: 0.0017992
inclination: 98.0330°
perigee height: 668 km
apogee height: 693 km
right ascension of ascending node: 108.2637°
argument of perigee: 113.4718°
revolutions per day: 14.63833476
mean anomaly at epoch: 246.8378°
orbit number at epoch: 80525

The dashed part of the orbit path shows where the satellite is in the earth's shadow,  

DLR